Weather History for Sand Island, Henderson Field, HI

Change the Weather History Date:

Thursday, January 30, 2014

  Actual Average Record
Temperature  
Mean Temperature 61 °F -  
Max Temperature 63 °F - - ()
Min Temperature 59 °F - - ()
Degree Days  
Heating Degree Days 4    
Growing Degree Days 11 (Base 50)    
Moisture  
Dew Point 55 °F    
Average Humidity 83    
Maximum Humidity 100    
Minimum Humidity 56    
Precipitation  
Precipitation 0.09 in - - ()
Sea Level Pressure  
Sea Level Pressure 30.35 in    
Wind  
Wind Speed 16 mph (NE)    
Max Wind Speed 22 mph    
Max Gust Speed 30 mph    
Visibility 5 miles    
Events Rain    
T = Trace of Precipitation, MM = Missing Value Source: NWS Daily Summary

Daily Weather History Graph

Daily Weather History Graph

Search for Another Location

Airport:

Trip Planner

Search our weather history database for the weather conditions in past years. The results will help you decide how hot, cold, wet, or windy it might be!

Date:

Astronomy

Jan. 30, 2014 Rise Set
Actual Time 6:37 PM GMT 5:28 AM GMT
Civil Twilight 6:13 PM GMT 5:52 AM GMT
Nautical Twilight 5:44 PM GMT 6:21 AM GMT
Astronomical Twilight 5:17 PM GMT 6:48 AM GMT
Moon 6:19 PM GMT (1/30) 4:42 AM GMT (1/30)
Length of Visible Light 11h 39m
Length of Day
10h 50m
Waning Crescent, 0% of the Moon is Illuminated
Jan 30
Waning Crescent
Jan 30
New
Feb 6
First Quarter
Feb 14
Full
Feb 22
Last Quarter

Hourly Weather History & Observations

Time (GMT) Temp. Dew Point Humidity Pressure Visibility Wind Dir Wind Speed Gust Speed Precip Events Conditions
12:04 AM 60.8 °F 57.2 °F 88% 30.04 in 1.5 mi NE 16.1 mph - 0.00 in Rain Light Rain
12:07 AM 60.8 °F 57.2 °F 88% 30.03 in 3.0 mi NE 20.7 mph 29.9 mph 0.00 in Rain Light Rain
12:56 AM 61.0 °F 52.9 °F 75% 30.95 in 8.0 mi NE 16.1 mph 27.6 mph 0.00 in   Overcast
1:08 AM 60.8 °F 53.6 °F 77% 30.03 in 9.0 mi NE 17.3 mph 27.6 mph N/A   Overcast
1:56 AM 61.9 °F 52.9 °F 72% 30.95 in 10.0 mi NE 16.1 mph 28.8 mph N/A   Overcast
2:56 AM 62.6 °F 53.6 °F 72% 30.02 in 9.0 mi NE 18.4 mph 26.5 mph N/A   Overcast
3:03 AM 62.6 °F 53.6 °F 72% 30.01 in 9.0 mi ENE 21.9 mph 26.5 mph N/A   Overcast
3:56 AM 63.0 °F 54.0 °F 72% 30.94 in 8.0 mi NE 16.1 mph 24.2 mph N/A   Mostly Cloudy
4:10 AM 62.6 °F 55.4 °F 77% 30.01 in 2.5 mi NE 19.6 mph 27.6 mph 0.00 in Rain Light Rain
4:15 AM 60.8 °F 55.4 °F 82% 30.01 in 1.2 mi ENE 18.4 mph 24.2 mph 0.00 in Rain Light Rain
4:24 AM 60.8 °F 55.4 °F 82% 30.02 in 2.0 mi NE 18.4 mph 25.3 mph 0.00 in Rain Light Rain
4:36 AM 60.8 °F 55.4 °F 82% 30.01 in 6.0 mi ENE 18.4 mph - 0.00 in Rain Light Rain
4:56 AM 59.9 °F 56.8 °F 90% 30.94 in 1.2 mi ENE 18.4 mph 24.2 mph 0.00 in Rain Light Rain
5:04 AM 60.8 °F 57.2 °F 88% 30.02 in 2.0 mi NE 18.4 mph - 0.00 in Rain Light Rain
5:12 AM 60.8 °F 57.2 °F 88% 30.03 in 3.0 mi NE 17.3 mph 24.2 mph 0.00 in Rain Light Rain
5:25 AM 60.8 °F 57.2 °F 88% 30.03 in 8.0 mi NE 17.3 mph 23.0 mph 0.00 in Rain Light Rain
5:36 AM 60.8 °F 57.2 °F 88% 30.04 in 1.8 mi NE 15.0 mph 25.3 mph 0.01 in Rain Light Rain
5:40 AM 59.0 °F 57.2 °F 94% 30.04 in 1.2 mi NE 15.0 mph 25.3 mph 0.01 in Rain Light Rain
5:45 AM 60.8 °F 59.0 °F 94% 30.04 in 2.0 mi NE 16.1 mph 25.3 mph 0.01 in Rain Light Rain
5:47 AM 60.8 °F 59.0 °F 94% 30.04 in 1.8 mi NE 18.4 mph 25.3 mph 0.01 in Rain Light Rain
5:56 AM 59.0 °F 59.0 °F 100% 30.04 in 0.8 mi NE 16.1 mph 25.3 mph N/A Rain Light Rain
6:02 AM 59.0 °F 59.0 °F 100% 30.05 in 1.2 mi NE 15.0 mph 25.3 mph 0.00 in Rain Light Rain
6:13 AM 59.0 °F 59.0 °F 100% 30.05 in 1.0 mi NE 16.1 mph 24.2 mph 0.00 in Rain Light Rain
6:18 AM 59.0 °F 59.0 °F 100% 30.05 in 1.5 mi NE 17.3 mph 24.2 mph 0.00 in Rain Light Rain
6:31 AM 59.0 °F 59.0 °F 100% 30.06 in 2.5 mi NE 15.0 mph 28.8 mph 0.00 in Rain Light Rain
6:38 AM 59.0 °F 59.0 °F 100% 30.06 in 6.0 mi NE 19.6 mph 26.5 mph 0.00 in Rain Light Rain
6:56 AM 59.9 °F 59.0 °F 97% 30.99 in 8.0 mi NE 17.3 mph 26.5 mph 0.00 in   Overcast
7:21 AM 60.8 °F 57.2 °F 88% 30.08 in 2.5 mi NE 15.0 mph 25.3 mph 0.00 in Rain Light Rain
7:28 AM 60.8 °F 57.2 °F 88% 30.08 in 5.0 mi NE 16.1 mph 25.3 mph 0.00 in Rain Light Rain
7:56 AM 59.9 °F 59.0 °F 97% 31.01 in 3.0 mi NE 16.1 mph 25.3 mph 0.00 in Rain Light Rain
8:09 AM 60.8 °F 57.2 °F 88% 30.08 in 5.0 mi NE 17.3 mph 25.3 mph 0.00 in Rain Light Rain
8:56 AM 60.8 °F 55.4 °F 82% 30.08 in 7.0 mi NE 18.4 mph 24.2 mph N/A   Overcast
9:16 AM 60.8 °F 55.4 °F 82% 30.08 in 7.0 mi NE 19.6 mph 27.6 mph N/A   Overcast
9:23 AM 60.8 °F 55.4 °F 82% 30.08 in 7.0 mi NE 13.8 mph 27.6 mph N/A   Overcast
9:56 AM 61.0 °F 55.9 °F 83% 31.00 in 8.0 mi NE 18.4 mph 27.6 mph N/A   Overcast
10:34 AM 60.8 °F 55.4 °F 82% 30.07 in 8.0 mi NE 16.1 mph 21.9 mph N/A   Overcast
10:56 AM 61.0 °F 55.9 °F 83% 30.99 in 8.0 mi NE 15.0 mph 26.5 mph N/A   Mostly Cloudy
11:56 AM 61.0 °F 54.9 °F 80% 30.97 in 9.0 mi NE 12.7 mph 24.2 mph N/A   Mostly Cloudy
12:24 PM 60.8 °F 57.2 °F 88% 30.05 in 2.5 mi NE 13.8 mph 19.6 mph 0.01 in Rain Light Rain
12:32 PM 60.8 °F 57.2 °F 88% 30.04 in 6.0 mi NE 13.8 mph 23.0 mph 0.01 in Rain Light Rain
12:56 PM 59.9 °F 56.8 °F 90% 30.97 in 1.5 mi NE 11.5 mph 19.6 mph 0.03 in Rain Rain
1:00 PM 60.8 °F 57.2 °F 88% 30.05 in 1.0 mi NE 15.0 mph 19.6 mph 0.01 in Rain Light Rain
1:10 PM 59.0 °F 57.2 °F 94% 30.04 in 1.2 mi NE 13.8 mph 21.9 mph 0.03 in Rain Heavy Rain
1:17 PM 59.0 °F 57.2 °F 94% 30.04 in 0.8 mi NNE 10.4 mph 21.9 mph 0.04 in Rain Rain
1:21 PM 60.8 °F 57.2 °F 88% 30.04 in 1.2 mi NE 11.5 mph 17.3 mph 0.05 in Rain Light Rain
1:25 PM 60.8 °F 57.2 °F 88% 30.04 in 2.0 mi NNE 10.4 mph - 0.05 in Rain Light Rain
1:33 PM 60.8 °F 57.2 °F 88% 30.04 in 6.0 mi NNE 13.8 mph 18.4 mph 0.05 in Rain Light Rain
1:56 PM 59.9 °F 54.9 °F 83% 30.96 in 7.0 mi NE 11.5 mph - 0.05 in   Mostly Cloudy
2:56 PM 60.8 °F 53.6 °F 77% 30.03 in 6.0 mi NNE 10.4 mph - N/A   Haze
3:37 PM 60.8 °F 53.6 °F 77% 30.03 in 7.0 mi NNE 8.1 mph - N/A   Overcast
3:56 PM 61.0 °F 52.9 °F 75% 30.95 in 6.0 mi North 9.2 mph 19.6 mph N/A   Haze
4:23 PM 60.8 °F 53.6 °F 77% 30.03 in 7.0 mi NNE 8.1 mph - N/A   Overcast
4:47 PM 60.8 °F 51.8 °F 72% 30.04 in 7.0 mi NNE 12.7 mph 20.7 mph N/A   Overcast
4:56 PM 61.0 °F 50.9 °F 69% 30.96 in 7.0 mi NNE 10.4 mph 20.7 mph N/A   Overcast
5:56 PM 61.0 °F 48.9 °F 64% 30.97 in 9.0 mi NNE 10.4 mph 19.6 mph N/A   Overcast
6:56 PM 59.9 °F 48.9 °F 67% 30.98 in 9.0 mi NNE 11.5 mph 23.0 mph N/A   Mostly Cloudy
7:56 PM 61.0 °F 47.8 °F 62% 30.99 in 9.0 mi NNE 12.7 mph 21.9 mph N/A   Overcast
8:56 PM 61.0 °F 48.9 °F 64% 31.00 in 10.0 mi North 12.7 mph 26.5 mph N/A   Mostly Cloudy
9:56 PM 61.9 °F 50.0 °F 65% 31.00 in 10.0 mi North 15.0 mph 23.0 mph N/A   Mostly Cloudy
10:56 PM 63.0 °F 47.8 °F 58% 31.00 in 10.0 mi North 11.5 mph 19.6 mph N/A   Clear
11:56 PM 63.0 °F 46.9 °F 56% 30.98 in 10.0 mi NNE 15.0 mph 19.6 mph N/A   Partly Cloudy